Location: Coupvray
(48.8929°N, 2.7967°E)
Time: 20:28:16
(UTC+00:00)

Cosmos 724 - Pass Details

Date: 24 October 2020
Orbit: 851 x 943 km, 65.6° (Epoch: 01 December)

Event Time Altitude Azimuth Distance (km) Brightness Sun altitude
Exits shadow 01:32:15 15° 28° (NNE) 2,255 6.9 -45.5°
Drops below altitude 10° 01:33:15 10° 31° (NNE) 2,596 7.3 -45.4°
Sets 01:35:54 0° 38° (NE) 3,556 8.2 -45.1°
